Year,Month,Day,Hour,Minute,Value (Times are PST for temperature in C)
2018,08,07,00,00,18.90
2018,08,07,00,01,18.90
2018,08,07,00,02,18.90
2018,08,07,00,03,18.90
2018,08,07,00,04,18.90
2018,08,07,00,05,18.80
2018,08,07,00,06,18.80
2018,08,07,00,07,18.80
2018,08,07,00,08,18.70
2018,08,07,00,09,18.70
2018,08,07,00,10,18.60
2018,08,07,00,11,18.60
2018,08,07,00,12,18.50
2018,08,07,00,13,18.50
2018,08,07,00,14,18.50
2018,08,07,00,15,18.40
2018,08,07,00,16,18.40
2018,08,07,00,17,18.40
2018,08,07,00,18,18.40
2018,08,07,00,19,18.40
2018,08,07,00,20,18.40
2018,08,07,00,21,18.30
2018,08,07,00,22,18.30
2018,08,07,00,23,18.30
2018,08,07,00,24,18.30
2018,08,07,00,25,18.30
2018,08,07,00,26,18.30
2018,08,07,00,27,18.30
2018,08,07,00,28,18.30
2018,08,07,00,29,18.30
2018,08,07,00,30,18.30
2018,08,07,00,31,18.30
2018,08,07,00,32,18.30
2018,08,07,00,33,18.30
2018,08,07,00,34,18.30
2018,08,07,00,35,18.30
2018,08,07,00,36,18.30
2018,08,07,00,37,18.30
2018,08,07,00,38,18.30
2018,08,07,00,39,18.30
2018,08,07,00,40,18.30
2018,08,07,00,41,18.30
2018,08,07,00,42,18.30
2018,08,07,00,43,18.30
2018,08,07,00,44,18.30
2018,08,07,00,45,18.30
2018,08,07,00,46,18.20
2018,08,07,00,47,18.20
2018,08,07,00,48,18.20
2018,08,07,00,49,18.20
2018,08,07,00,50,18.20
2018,08,07,00,51,18.20
2018,08,07,00,52,18.20
2018,08,07,00,53,18.20
2018,08,07,00,54,18.20
2018,08,07,00,55,18.20
2018,08,07,00,56,18.20
2018,08,07,00,57,18.20
2018,08,07,00,58,18.20
2018,08,07,00,59,18.20
2018,08,07,01,00,18.20
2018,08,07,01,01,18.20
2018,08,07,01,02,18.20
2018,08,07,01,03,18.20
2018,08,07,01,04,18.10
2018,08,07,01,05,18.10
2018,08,07,01,06,18.10
2018,08,07,01,07,18.00
2018,08,07,01,08,17.90
2018,08,07,01,09,17.90
2018,08,07,01,10,17.90
2018,08,07,01,11,17.90
2018,08,07,01,12,17.90
2018,08,07,01,13,17.80
2018,08,07,01,14,17.80
2018,08,07,01,15,17.70
2018,08,07,01,16,17.70
2018,08,07,01,17,17.70
2018,08,07,01,18,17.60
2018,08,07,01,19,17.60
2018,08,07,01,20,17.50
2018,08,07,01,21,17.50
2018,08,07,01,22,17.40
2018,08,07,01,23,17.40
2018,08,07,01,24,17.30
2018,08,07,01,25,17.30
2018,08,07,01,26,17.30
2018,08,07,01,27,17.30
2018,08,07,01,28,17.30
2018,08,07,01,29,17.30
2018,08,07,01,30,17.30
2018,08,07,01,31,17.30
2018,08,07,01,32,17.30
2018,08,07,01,33,17.20
2018,08,07,01,34,17.20
2018,08,07,01,35,17.20
2018,08,07,01,36,17.20
2018,08,07,01,37,17.20
2018,08,07,01,38,17.20
2018,08,07,01,39,17.10
2018,08,07,01,40,17.10
2018,08,07,01,41,17.10
2018,08,07,01,42,17.10
2018,08,07,01,43,17.10
2018,08,07,01,44,17.10
2018,08,07,01,45,17.10
2018,08,07,01,46,17.10
2018,08,07,01,47,17.00
2018,08,07,01,48,17.00
2018,08,07,01,49,17.00
2018,08,07,01,50,17.00
2018,08,07,01,51,17.00
2018,08,07,01,52,16.90
2018,08,07,01,53,16.90
2018,08,07,01,54,16.90
2018,08,07,01,55,16.90
2018,08,07,01,56,16.80
2018,08,07,01,57,16.80
2018,08,07,01,58,16.80
2018,08,07,01,59,16.80
2018,08,07,02,00,16.70
2018,08,07,02,01,16.70
2018,08,07,02,02,16.70
2018,08,07,02,03,16.70
2018,08,07,02,04,16.70
2018,08,07,02,05,16.70
2018,08,07,02,06,16.70
2018,08,07,02,07,16.70
2018,08,07,02,08,16.70
2018,08,07,02,09,16.70
2018,08,07,02,10,16.70
2018,08,07,02,11,16.70
2018,08,07,02,12,16.70
2018,08,07,02,13,16.70
2018,08,07,02,14,16.70
2018,08,07,02,15,16.70
2018,08,07,02,16,16.70
2018,08,07,02,17,16.70
2018,08,07,02,18,16.70
2018,08,07,02,19,16.70
2018,08,07,02,20,16.70
2018,08,07,02,21,16.60
2018,08,07,02,22,16.60
2018,08,07,02,23,16.60
2018,08,07,02,24,16.60
2018,08,07,02,25,16.60
2018,08,07,02,26,16.60
2018,08,07,02,27,16.60
2018,08,07,02,28,16.60
2018,08,07,02,29,16.60
2018,08,07,02,30,16.60
2018,08,07,02,31,16.60
2018,08,07,02,32,16.60
2018,08,07,02,33,16.50
2018,08,07,02,34,16.40
2018,08,07,02,35,16.40
2018,08,07,02,36,16.40
2018,08,07,02,37,16.40
2018,08,07,02,38,16.40
2018,08,07,02,39,16.40
2018,08,07,02,40,16.40
2018,08,07,02,41,16.40
2018,08,07,02,42,16.40
2018,08,07,02,43,16.40
2018,08,07,02,44,16.40
2018,08,07,02,45,16.40
2018,08,07,02,46,16.40
2018,08,07,02,47,16.40
2018,08,07,02,48,16.40
2018,08,07,02,49,16.30
2018,08,07,02,50,16.30
2018,08,07,02,51,16.30
2018,08,07,02,52,16.30
2018,08,07,02,53,16.30
2018,08,07,02,54,16.30
2018,08,07,02,55,16.30
2018,08,07,02,56,16.30
2018,08,07,02,57,16.30
2018,08,07,02,58,16.20
2018,08,07,02,59,16.20
2018,08,07,03,00,16.20
2018,08,07,03,01,16.20
2018,08,07,03,02,16.20
2018,08,07,03,03,16.20
2018,08,07,03,04,16.20
2018,08,07,03,05,16.20
2018,08,07,03,06,16.20
2018,08,07,03,07,16.10
2018,08,07,03,08,16.10
2018,08,07,03,09,16.10
2018,08,07,03,10,16.10
2018,08,07,03,11,16.10
2018,08,07,03,12,16.20
2018,08,07,03,13,16.20
2018,08,07,03,14,16.20
2018,08,07,03,15,16.20
2018,08,07,03,16,16.20
2018,08,07,03,17,16.20
2018,08,07,03,18,16.10
2018,08,07,03,19,16.10
2018,08,07,03,20,16.10
2018,08,07,03,21,16.10
2018,08,07,03,22,16.10
2018,08,07,03,23,16.10
2018,08,07,03,24,16.10
2018,08,07,03,25,16.10
2018,08,07,03,26,16.10
2018,08,07,03,27,16.10
2018,08,07,03,28,16.10
2018,08,07,03,29,16.10
2018,08,07,03,30,16.10
2018,08,07,03,31,16.00
2018,08,07,03,32,15.90
2018,08,07,03,33,15.90
2018,08,07,03,34,15.90
2018,08,07,03,35,15.90
2018,08,07,03,36,15.90
2018,08,07,03,37,15.90
2018,08,07,03,38,15.80
2018,08,07,03,39,15.80
2018,08,07,03,40,15.80
2018,08,07,03,41,15.80
2018,08,07,03,42,15.80
2018,08,07,03,43,15.80
2018,08,07,03,44,15.80
2018,08,07,03,45,15.80
2018,08,07,03,46,15.80
2018,08,07,03,47,15.80
2018,08,07,03,48,15.70
2018,08,07,03,49,15.70
2018,08,07,03,50,15.70
2018,08,07,03,51,15.70
2018,08,07,03,52,15.60
2018,08,07,03,53,15.60
2018,08,07,03,54,15.60
2018,08,07,03,55,15.60
2018,08,07,03,56,15.60
2018,08,07,03,57,15.60
2018,08,07,03,58,15.50
2018,08,07,03,59,15.50
2018,08,07,04,00,15.50
2018,08,07,04,01,15.50
2018,08,07,04,02,15.50
2018,08,07,04,03,15.50
2018,08,07,04,04,15.50
2018,08,07,04,05,15.40
2018,08,07,04,06,15.40
2018,08,07,04,07,15.40
2018,08,07,04,08,15.40
2018,08,07,04,09,15.40
2018,08,07,04,10,15.40
2018,08,07,04,11,15.40
2018,08,07,04,12,15.40
2018,08,07,04,13,15.40
2018,08,07,04,14,15.40
2018,08,07,04,15,15.40
2018,08,07,04,16,15.40
2018,08,07,04,17,15.40
2018,08,07,04,18,15.40
2018,08,07,04,19,15.40
2018,08,07,04,20,15.40
2018,08,07,04,21,15.40
2018,08,07,04,22,15.40
2018,08,07,04,23,15.30
2018,08,07,04,24,15.30
2018,08,07,04,25,15.30
2018,08,07,04,26,15.30
2018,08,07,04,27,15.30
2018,08,07,04,28,15.30
2018,08,07,04,29,15.30
2018,08,07,04,30,15.30
2018,08,07,04,31,15.30
2018,08,07,04,32,15.30
2018,08,07,04,33,15.30
2018,08,07,04,34,15.30
2018,08,07,04,35,15.30
2018,08,07,04,36,15.30
2018,08,07,04,37,15.30
2018,08,07,04,38,15.30
2018,08,07,04,39,15.30
2018,08,07,04,40,15.30
2018,08,07,04,41,15.30
2018,08,07,04,42,15.30
2018,08,07,04,43,15.30
2018,08,07,04,44,15.30
2018,08,07,04,45,15.30
2018,08,07,04,46,15.30
2018,08,07,04,47,15.30
2018,08,07,04,48,15.20
2018,08,07,04,49,15.20
2018,08,07,04,50,15.20
2018,08,07,04,51,15.10
2018,08,07,04,52,15.10
2018,08,07,04,53,15.10
2018,08,07,04,54,15.10
2018,08,07,04,55,15.00
2018,08,07,04,56,15.00
2018,08,07,04,57,15.00
2018,08,07,04,58,15.00
2018,08,07,04,59,14.90
2018,08,07,05,00,14.90
2018,08,07,05,01,14.90
2018,08,07,05,02,14.80
2018,08,07,05,03,14.80
2018,08,07,05,04,14.80
2018,08,07,05,05,14.80
2018,08,07,05,06,14.80
2018,08,07,05,07,14.80
2018,08,07,05,08,14.70
2018,08,07,05,09,14.70
2018,08,07,05,10,14.70
2018,08,07,05,11,14.60
2018,08,07,05,12,14.60
2018,08,07,05,13,14.60
2018,08,07,05,14,14.60
2018,08,07,05,15,14.50
2018,08,07,05,16,14.50
2018,08,07,05,17,14.50
2018,08,07,05,18,14.50
2018,08,07,05,19,14.40
2018,08,07,05,20,14.40
2018,08,07,05,21,14.40
2018,08,07,05,22,14.30
2018,08,07,05,23,14.30
2018,08,07,05,24,14.20
2018,08,07,05,25,14.20
2018,08,07,05,26,14.20
2018,08,07,05,27,14.10
2018,08,07,05,28,14.00
2018,08,07,05,29,14.00
2018,08,07,05,30,13.90
2018,08,07,05,31,13.90
2018,08,07,05,32,13.90
2018,08,07,05,33,13.80
2018,08,07,05,34,13.80
2018,08,07,05,35,13.80
2018,08,07,05,36,13.70
2018,08,07,05,37,13.70
2018,08,07,05,38,13.70
2018,08,07,05,39,13.70
2018,08,07,05,40,13.70
2018,08,07,05,41,13.70
2018,08,07,05,42,13.60
2018,08,07,05,43,13.60
2018,08,07,05,44,13.60
2018,08,07,05,45,13.60
2018,08,07,05,46,13.50
2018,08,07,05,47,13.50
2018,08,07,05,48,13.50
2018,08,07,05,49,13.50
2018,08,07,05,50,13.50
2018,08,07,05,51,13.50
2018,08,07,05,52,13.40
2018,08,07,05,53,13.40
2018,08,07,05,54,13.40
2018,08,07,05,55,13.30
2018,08,07,05,56,13.30
2018,08,07,05,57,13.30
2018,08,07,05,58,13.30
2018,08,07,05,59,13.30
2018,08,07,06,00,13.30
2018,08,07,06,01,13.30
2018,08,07,06,02,13.30
2018,08,07,06,03,13.30
2018,08,07,06,04,13.30
2018,08,07,06,05,13.30
2018,08,07,06,06,13.30
2018,08,07,06,07,13.30
2018,08,07,06,08,13.30
2018,08,07,06,09,13.20
2018,08,07,06,10,13.30
2018,08,07,06,11,13.30
2018,08,07,06,12,13.30
2018,08,07,06,13,13.30
2018,08,07,06,14,13.30
2018,08,07,06,15,13.30
2018,08,07,06,16,13.30
2018,08,07,06,17,13.30
2018,08,07,06,18,13.30
2018,08,07,06,19,13.30
2018,08,07,06,20,13.30
2018,08,07,06,21,13.30
2018,08,07,06,22,13.30
2018,08,07,06,23,13.30
2018,08,07,06,24,13.30
2018,08,07,06,25,13.30
2018,08,07,06,26,13.30
2018,08,07,06,27,13.30
2018,08,07,06,28,13.30
2018,08,07,06,29,13.30
2018,08,07,06,30,13.40
2018,08,07,06,31,13.40
2018,08,07,06,32,13.40
2018,08,07,06,33,13.40
2018,08,07,06,34,13.50
2018,08,07,06,35,13.50
2018,08,07,06,36,13.50
2018,08,07,06,37,13.50
2018,08,07,06,38,13.60
2018,08,07,06,39,13.60
2018,08,07,06,40,13.70
2018,08,07,06,41,13.70
2018,08,07,06,42,13.70
2018,08,07,06,43,13.70
2018,08,07,06,44,13.80
2018,08,07,06,45,13.80
2018,08,07,06,46,13.80
2018,08,07,06,47,13.90
2018,08,07,06,48,13.90
2018,08,07,06,49,13.90
2018,08,07,06,50,14.00
2018,08,07,06,51,14.00
2018,08,07,06,52,14.10
2018,08,07,06,53,14.10
2018,08,07,06,54,14.20
2018,08,07,06,55,14.20
2018,08,07,06,56,14.20
2018,08,07,06,57,14.20
2018,08,07,06,58,14.30
2018,08,07,06,59,14.30
2018,08,07,07,00,14.40
2018,08,07,07,01,14.50
2018,08,07,07,02,14.50
2018,08,07,07,03,14.60
2018,08,07,07,04,14.70
2018,08,07,07,05,14.70
2018,08,07,07,06,14.80
2018,08,07,07,07,14.80
2018,08,07,07,08,14.90
2018,08,07,07,09,15.00
2018,08,07,07,10,15.00
2018,08,07,07,11,15.10
2018,08,07,07,12,15.20
2018,08,07,07,13,15.30
2018,08,07,07,14,15.30
2018,08,07,07,15,15.40
2018,08,07,07,16,15.50
2018,08,07,07,17,15.50
2018,08,07,07,18,15.60
2018,08,07,07,19,15.70
2018,08,07,07,20,15.70
2018,08,07,07,21,15.80
2018,08,07,07,22,15.80
2018,08,07,07,23,15.80
2018,08,07,07,24,15.80
2018,08,07,07,25,15.90
2018,08,07,07,26,15.90
2018,08,07,07,27,16.00
2018,08,07,07,28,16.10
2018,08,07,07,29,16.10
2018,08,07,07,30,16.10
2018,08,07,07,31,16.20
2018,08,07,07,32,16.30
2018,08,07,07,33,16.30
2018,08,07,07,34,16.40
2018,08,07,07,35,16.40
2018,08,07,07,36,16.40
2018,08,07,07,37,16.60
2018,08,07,07,38,16.60
2018,08,07,07,39,16.60
2018,08,07,07,40,16.60
2018,08,07,07,41,16.60
2018,08,07,07,42,16.60
2018,08,07,07,43,16.60
2018,08,07,07,44,16.70
2018,08,07,07,45,16.70
2018,08,07,07,46,16.70
2018,08,07,07,47,16.80
2018,08,07,07,48,16.90
2018,08,07,07,49,16.90
2018,08,07,07,50,17.00
2018,08,07,07,51,17.10
2018,08,07,07,52,17.20
2018,08,07,07,53,17.30
2018,08,07,07,54,17.30
2018,08,07,07,55,17.30
2018,08,07,07,56,17.30
2018,08,07,07,57,17.40
2018,08,07,07,58,17.40
2018,08,07,07,59,17.40
2018,08,07,08,00,17.50
2018,08,07,08,01,17.60
2018,08,07,08,02,17.70
2018,08,07,08,03,17.70
2018,08,07,08,04,17.80
2018,08,07,08,05,17.80
2018,08,07,08,06,17.90
2018,08,07,08,07,17.90
2018,08,07,08,08,18.00
2018,08,07,08,09,18.10
2018,08,07,08,10,18.20
2018,08,07,08,11,18.20
2018,08,07,08,12,18.20
2018,08,07,08,13,18.20
2018,08,07,08,14,18.20
2018,08,07,08,15,18.30
2018,08,07,08,16,18.40
2018,08,07,08,17,18.40
2018,08,07,08,18,18.50
2018,08,07,08,19,18.50
2018,08,07,08,20,18.50
2018,08,07,08,21,18.60
2018,08,07,08,22,18.60
2018,08,07,08,23,18.60
2018,08,07,08,24,18.60
2018,08,07,08,25,18.60
2018,08,07,08,26,18.60
2018,08,07,08,27,18.60
2018,08,07,08,28,18.60
2018,08,07,08,29,18.60
2018,08,07,08,30,18.60
2018,08,07,08,31,18.70
2018,08,07,08,32,18.70
2018,08,07,08,33,18.80
2018,08,07,08,34,18.80
2018,08,07,08,35,18.90
2018,08,07,08,36,18.90
2018,08,07,08,37,19.00
2018,08,07,08,38,19.10
2018,08,07,08,39,19.10
2018,08,07,08,40,19.10
2018,08,07,08,41,19.10
2018,08,07,08,42,19.10
2018,08,07,08,43,19.00
2018,08,07,08,44,18.90
2018,08,07,08,45,18.90
2018,08,07,08,46,18.80
2018,08,07,08,47,18.70
2018,08,07,08,48,18.70
2018,08,07,08,49,18.70
2018,08,07,08,50,18.70
2018,08,07,08,51,18.60
2018,08,07,08,52,18.50
2018,08,07,08,53,18.50
2018,08,07,08,54,18.40
2018,08,07,08,55,18.30
2018,08,07,08,56,18.30
2018,08,07,08,57,18.30
2018,08,07,08,58,18.30
2018,08,07,08,59,18.20
2018,08,07,09,00,18.20
2018,08,07,09,01,18.20
2018,08,07,09,02,18.20
2018,08,07,09,03,18.20
2018,08,07,09,04,18.30
2018,08,07,09,05,18.30
2018,08,07,09,06,18.30
2018,08,07,09,07,18.20
2018,08,07,09,08,18.20
2018,08,07,09,09,18.20
2018,08,07,09,10,18.10
2018,08,07,09,11,18.00
2018,08,07,09,12,17.90
2018,08,07,09,13,17.90
2018,08,07,09,14,17.90
2018,08,07,09,15,17.90
2018,08,07,09,16,17.90
2018,08,07,09,17,17.90
2018,08,07,09,18,17.90
2018,08,07,09,19,17.90
2018,08,07,09,20,17.90
2018,08,07,09,21,17.90
2018,08,07,09,22,17.90
2018,08,07,09,23,17.80
2018,08,07,09,24,17.80
2018,08,07,09,25,17.80
2018,08,07,09,26,17.90
2018,08,07,09,27,17.90
2018,08,07,09,28,17.90
2018,08,07,09,29,18.00
2018,08,07,09,30,18.10
2018,08,07,09,31,18.10
2018,08,07,09,32,18.10
2018,08,07,09,33,18.20
2018,08,07,09,34,18.20
2018,08,07,09,35,18.20
2018,08,07,09,36,18.20
2018,08,07,09,37,18.30
2018,08,07,09,38,18.40
2018,08,07,09,39,18.50
2018,08,07,09,40,18.50
2018,08,07,09,41,18.60
2018,08,07,09,42,18.70
2018,08,07,09,43,18.90
2018,08,07,09,44,19.00
2018,08,07,09,45,19.00
2018,08,07,09,46,18.90
2018,08,07,09,47,18.90
2018,08,07,09,48,18.90
2018,08,07,09,49,18.90
2018,08,07,09,50,18.90
2018,08,07,09,51,18.90
2018,08,07,09,52,19.00
2018,08,07,09,53,19.10
2018,08,07,09,54,19.10
2018,08,07,09,55,19.20
2018,08,07,09,56,19.30
2018,08,07,09,57,19.40
2018,08,07,09,58,19.40
2018,08,07,09,59,19.50
2018,08,07,10,00,19.60
2018,08,07,10,01,19.80
2018,08,07,10,02,19.90
2018,08,07,10,03,19.90
2018,08,07,10,04,19.90
2018,08,07,10,05,19.90
2018,08,07,10,06,20.00
2018,08,07,10,07,20.20
2018,08,07,10,08,20.30
2018,08,07,10,09,20.40
2018,08,07,10,10,20.40
2018,08,07,10,11,20.40
2018,08,07,10,12,20.50
2018,08,07,10,13,20.60
2018,08,07,10,14,20.70
2018,08,07,10,15,20.70
2018,08,07,10,16,20.80
2018,08,07,10,17,20.90
2018,08,07,10,18,21.00
2018,08,07,10,19,21.10
2018,08,07,10,20,21.10
2018,08,07,10,21,21.20
2018,08,07,10,22,21.20
2018,08,07,10,23,21.30
2018,08,07,10,24,21.30
2018,08,07,10,25,21.50
2018,08,07,10,26,21.60
2018,08,07,10,27,21.60
2018,08,07,10,28,21.60
2018,08,07,10,29,21.60
2018,08,07,10,30,21.60
2018,08,07,10,31,21.70
2018,08,07,10,32,21.80
2018,08,07,10,33,21.80
2018,08,07,10,34,21.80
2018,08,07,10,35,21.90
2018,08,07,10,36,22.00
2018,08,07,10,37,22.00
2018,08,07,10,38,22.10
2018,08,07,10,39,22.10
2018,08,07,10,40,22.30
2018,08,07,10,41,22.40
2018,08,07,10,42,22.50
2018,08,07,10,43,22.50
2018,08,07,10,44,22.60
2018,08,07,10,45,22.70
2018,08,07,10,46,22.80
2018,08,07,10,47,22.90
2018,08,07,10,48,23.00
2018,08,07,10,49,23.10
2018,08,07,10,50,23.30
2018,08,07,10,51,23.40
2018,08,07,10,52,23.50
2018,08,07,10,53,23.70
2018,08,07,10,54,23.70
2018,08,07,10,55,23.70
2018,08,07,10,56,23.80
2018,08,07,10,57,23.70
2018,08,07,10,58,23.70
2018,08,07,10,59,23.70
2018,08,07,11,00,23.70
2018,08,07,11,01,23.70
2018,08,07,11,02,23.70
2018,08,07,11,03,23.70
2018,08,07,11,04,23.50
2018,08,07,11,05,23.40
2018,08,07,11,06,23.30
2018,08,07,11,07,23.30
2018,08,07,11,08,23.30
2018,08,07,11,09,23.40
2018,08,07,11,10,23.50
2018,08,07,11,11,23.60
2018,08,07,11,12,23.50
2018,08,07,11,13,23.30
2018,08,07,11,14,23.30
2018,08,07,11,15,23.20
2018,08,07,11,16,23.30
2018,08,07,11,17,23.30
2018,08,07,11,18,23.30
2018,08,07,11,19,23.30
2018,08,07,11,20,23.30
2018,08,07,11,21,23.40
2018,08,07,11,22,23.40
2018,08,07,11,23,23.50
2018,08,07,11,24,23.60
2018,08,07,11,25,23.70
2018,08,07,11,26,23.80
2018,08,07,11,27,23.90
2018,08,07,11,28,24.00
2018,08,07,11,29,24.10
2018,08,07,11,30,24.20
2018,08,07,11,31,24.20
2018,08,07,11,32,24.30
2018,08,07,11,33,24.40
2018,08,07,11,34,24.40
2018,08,07,11,35,24.50
2018,08,07,11,36,24.50
2018,08,07,11,37,24.40
2018,08,07,11,38,24.20
2018,08,07,11,39,24.10
2018,08,07,11,40,24.00
2018,08,07,11,41,23.80
2018,08,07,11,42,23.80
2018,08,07,11,43,23.90
2018,08,07,11,44,23.90
2018,08,07,11,45,23.80
2018,08,07,11,46,23.70
2018,08,07,11,47,23.70
2018,08,07,11,48,23.70
2018,08,07,11,49,23.80
2018,08,07,11,50,23.90
2018,08,07,11,51,24.00
2018,08,07,11,52,24.10
2018,08,07,11,53,24.20
2018,08,07,11,54,24.20
2018,08,07,11,55,24.30
2018,08,07,11,56,24.40
2018,08,07,11,57,24.50
2018,08,07,11,58,24.60
2018,08,07,11,59,24.70
2018,08,07,12,00,24.80
2018,08,07,12,01,24.90
2018,08,07,12,02,25.00
2018,08,07,12,03,25.10
2018,08,07,12,04,25.10
2018,08,07,12,05,25.20
2018,08,07,12,06,25.30
2018,08,07,12,07,25.40
2018,08,07,12,08,25.40
2018,08,07,12,09,25.40
2018,08,07,12,10,25.30
2018,08,07,12,11,25.20
2018,08,07,12,12,25.10
2018,08,07,12,13,25.10
2018,08,07,12,14,25.10
2018,08,07,12,15,25.10
2018,08,07,12,16,25.10
2018,08,07,12,17,25.10
2018,08,07,12,18,25.20
2018,08,07,12,19,25.30
2018,08,07,12,20,25.40
2018,08,07,12,21,25.50
2018,08,07,12,22,25.60
2018,08,07,12,23,25.60
2018,08,07,12,24,25.60
2018,08,07,12,25,25.40
2018,08,07,12,26,25.20
2018,08,07,12,27,25.20
2018,08,07,12,28,25.30
2018,08,07,12,29,25.30
2018,08,07,12,30,25.30
2018,08,07,12,31,25.40
2018,08,07,12,32,25.50
2018,08,07,12,33,25.50
2018,08,07,12,34,25.50
2018,08,07,12,35,25.40
2018,08,07,12,36,25.30
2018,08,07,12,37,25.30
2018,08,07,12,38,25.30
2018,08,07,12,39,25.20
2018,08,07,12,40,25.20
2018,08,07,12,41,25.20
2018,08,07,12,42,25.30
2018,08,07,12,43,25.40
2018,08,07,12,44,25.60
2018,08,07,12,45,25.70
2018,08,07,12,46,25.90
2018,08,07,12,47,26.00
2018,08,07,12,48,26.10
2018,08,07,12,49,26.10
2018,08,07,12,50,26.00
2018,08,07,12,51,25.90
2018,08,07,12,52,25.90
2018,08,07,12,53,25.90
2018,08,07,12,54,26.00
2018,08,07,12,55,26.10
2018,08,07,12,56,26.30
2018,08,07,12,57,26.40
2018,08,07,12,58,26.50
2018,08,07,12,59,26.60
2018,08,07,13,00,26.50
2018,08,07,13,01,26.40
2018,08,07,13,02,26.20
2018,08,07,13,03,26.20
2018,08,07,13,04,26.20
2018,08,07,13,05,26.00
2018,08,07,13,06,25.90
2018,08,07,13,07,25.90
2018,08,07,13,08,25.80
2018,08,07,13,09,25.90
2018,08,07,13,10,25.90
2018,08,07,13,11,25.90
2018,08,07,13,12,26.00
2018,08,07,13,13,25.80
2018,08,07,13,14,25.80
2018,08,07,13,15,25.70
2018,08,07,13,16,25.50
2018,08,07,13,17,25.40
2018,08,07,13,18,25.30
2018,08,07,13,19,25.10
2018,08,07,13,20,25.00
2018,08,07,13,21,24.90
2018,08,07,13,22,25.00
2018,08,07,13,23,25.10
2018,08,07,13,24,25.20
2018,08,07,13,25,25.20
2018,08,07,13,26,25.20
2018,08,07,13,27,25.00
2018,08,07,13,28,24.80
2018,08,07,13,29,24.60
2018,08,07,13,30,24.50
2018,08,07,13,31,24.40
2018,08,07,13,32,24.40
2018,08,07,13,33,24.30
2018,08,07,13,34,24.20
2018,08,07,13,35,24.10
2018,08,07,13,36,24.00
2018,08,07,13,37,23.90
2018,08,07,13,38,23.90
2018,08,07,13,39,24.00
2018,08,07,13,40,24.00
2018,08,07,13,41,23.90
2018,08,07,13,42,23.90
2018,08,07,13,43,24.10
2018,08,07,13,44,24.20
2018,08,07,13,45,24.40
2018,08,07,13,46,24.50
2018,08,07,13,47,24.60
2018,08,07,13,48,24.70
2018,08,07,13,49,24.80
2018,08,07,13,50,24.70
2018,08,07,13,51,24.60
2018,08,07,13,52,24.50
2018,08,07,13,53,24.40
2018,08,07,13,54,24.30
2018,08,07,13,55,24.20
2018,08,07,13,56,24.20
2018,08,07,13,57,24.20
2018,08,07,13,58,24.20
2018,08,07,13,59,24.20
2018,08,07,14,00,24.20
2018,08,07,14,01,24.20
2018,08,07,14,02,24.10
2018,08,07,14,03,24.10
2018,08,07,14,04,23.90
2018,08,07,14,05,23.90
2018,08,07,14,06,23.90
2018,08,07,14,07,23.80
2018,08,07,14,08,23.80
2018,08,07,14,09,23.90
2018,08,07,14,10,23.90
2018,08,07,14,11,23.80
2018,08,07,14,12,23.90
2018,08,07,14,13,23.90
2018,08,07,14,14,23.80
2018,08,07,14,15,23.90
2018,08,07,14,16,24.10
2018,08,07,14,17,24.20
2018,08,07,14,18,24.30
2018,08,07,14,19,24.30
2018,08,07,14,20,24.40
2018,08,07,14,21,24.40
2018,08,07,14,22,24.30
2018,08,07,14,23,24.20
2018,08,07,14,24,24.20
2018,08,07,14,25,24.20
2018,08,07,14,26,24.20
2018,08,07,14,27,24.20
2018,08,07,14,28,24.10
2018,08,07,14,29,24.00
2018,08,07,14,30,23.90
2018,08,07,14,31,23.90
2018,08,07,14,32,23.80
2018,08,07,14,33,23.80
2018,08,07,14,34,23.80
2018,08,07,14,35,23.90
2018,08,07,14,36,23.90
2018,08,07,14,37,24.00
2018,08,07,14,38,24.10
2018,08,07,14,39,24.20
2018,08,07,14,40,24.30
2018,08,07,14,41,24.40
2018,08,07,14,42,24.40
2018,08,07,14,43,24.40
2018,08,07,14,44,24.40
2018,08,07,14,45,24.40
2018,08,07,14,46,24.50
2018,08,07,14,47,24.60
2018,08,07,14,48,24.70
2018,08,07,14,49,24.70
2018,08,07,14,50,24.80
2018,08,07,14,51,24.80
2018,08,07,14,52,24.90
2018,08,07,14,53,24.90
2018,08,07,14,54,25.00
2018,08,07,14,55,25.00
2018,08,07,14,56,25.00
2018,08,07,14,57,24.90
2018,08,07,14,58,24.90
2018,08,07,14,59,25.00
2018,08,07,15,00,25.20
2018,08,07,15,01,25.30
2018,08,07,15,02,25.30
2018,08,07,15,03,25.40
2018,08,07,15,04,25.40
2018,08,07,15,05,25.40
2018,08,07,15,06,25.40
2018,08,07,15,07,25.30
2018,08,07,15,08,25.20
2018,08,07,15,09,25.20
2018,08,07,15,10,25.20
2018,08,07,15,11,25.20
2018,08,07,15,12,25.20
2018,08,07,15,13,25.20
2018,08,07,15,14,25.20
2018,08,07,15,15,25.20
2018,08,07,15,16,25.20
2018,08,07,15,17,25.30
2018,08,07,15,18,25.30
2018,08,07,15,19,25.40
2018,08,07,15,20,25.40
2018,08,07,15,21,25.50
2018,08,07,15,22,25.60
2018,08,07,15,23,25.80
2018,08,07,15,24,25.80
2018,08,07,15,25,25.80
2018,08,07,15,26,25.80
2018,08,07,15,27,25.90
2018,08,07,15,28,25.80
2018,08,07,15,29,25.70
2018,08,07,15,30,25.70
2018,08,07,15,31,25.70
2018,08,07,15,32,25.70
2018,08,07,15,33,25.70
2018,08,07,15,34,25.80
2018,08,07,15,35,25.90
2018,08,07,15,36,26.00
2018,08,07,15,37,26.00
2018,08,07,15,38,25.90
2018,08,07,15,39,25.70
2018,08,07,15,40,25.60
2018,08,07,15,41,25.50
2018,08,07,15,42,25.40
2018,08,07,15,43,25.30
2018,08,07,15,44,25.30
2018,08,07,15,45,25.30
2018,08,07,15,46,25.30
2018,08,07,15,47,25.50
2018,08,07,15,48,25.70
2018,08,07,15,49,25.90
2018,08,07,15,50,25.90
2018,08,07,15,51,25.90
2018,08,07,15,52,25.80
2018,08,07,15,53,25.80
2018,08,07,15,54,25.80
2018,08,07,15,55,25.80
2018,08,07,15,56,25.80
2018,08,07,15,57,25.90
2018,08,07,15,58,25.80
2018,08,07,15,59,25.80
2018,08,07,16,00,25.60
2018,08,07,16,01,25.50
2018,08,07,16,02,25.40
2018,08,07,16,03,25.40
2018,08,07,16,04,25.50
2018,08,07,16,05,25.50
2018,08,07,16,06,25.60
2018,08,07,16,07,25.60
2018,08,07,16,08,25.60
2018,08,07,16,09,25.70
2018,08,07,16,10,25.70
2018,08,07,16,11,25.80
2018,08,07,16,12,25.90
2018,08,07,16,13,25.90
2018,08,07,16,14,25.90
2018,08,07,16,15,25.90
2018,08,07,16,16,26.00
2018,08,07,16,17,26.00
2018,08,07,16,18,26.10
2018,08,07,16,19,26.10
2018,08,07,16,20,26.10
2018,08,07,16,21,26.10
2018,08,07,16,22,26.20
2018,08,07,16,23,26.20
2018,08,07,16,24,26.20
2018,08,07,16,25,26.30
2018,08,07,16,26,26.30
2018,08,07,16,27,26.30
2018,08,07,16,28,26.30
2018,08,07,16,29,26.30
2018,08,07,16,30,26.40
2018,08,07,16,31,26.40
2018,08,07,16,32,26.50
2018,08,07,16,33,26.60
2018,08,07,16,34,26.60
2018,08,07,16,35,26.60
2018,08,07,16,36,26.60
2018,08,07,16,37,26.60
2018,08,07,16,38,26.60
2018,08,07,16,39,26.60
2018,08,07,16,40,26.50
2018,08,07,16,41,26.40
2018,08,07,16,42,26.40
2018,08,07,16,43,26.30
2018,08,07,16,44,26.20
2018,08,07,16,45,26.10
2018,08,07,16,46,26.10
2018,08,07,16,47,26.20
2018,08,07,16,48,26.20
2018,08,07,16,49,26.20
2018,08,07,16,50,26.20
2018,08,07,16,51,26.30
2018,08,07,16,52,26.30
2018,08,07,16,53,26.20
2018,08,07,16,54,26.10
2018,08,07,16,55,26.20
2018,08,07,16,56,26.20
2018,08,07,16,57,26.20
2018,08,07,16,58,26.20
2018,08,07,16,59,26.20
2018,08,07,17,00,26.20
2018,08,07,17,01,26.20
2018,08,07,17,02,26.30
2018,08,07,17,03,26.30
2018,08,07,17,04,26.20
2018,08,07,17,05,26.30
2018,08,07,17,06,26.30
2018,08,07,17,07,26.40
2018,08,07,17,08,26.40
2018,08,07,17,09,26.40
2018,08,07,17,10,26.60
2018,08,07,17,11,26.60
2018,08,07,17,12,26.60
2018,08,07,17,13,26.60
2018,08,07,17,14,26.70
2018,08,07,17,15,26.70
2018,08,07,17,16,26.80
2018,08,07,17,17,26.80
2018,08,07,17,18,26.90
2018,08,07,17,19,27.00